Location: Fort Frances
(48.6170°N, 93.4170°W)
Time: 17:27:24
(UTC-05:00)

ISS - All Passes

Search period start: 27 March 2017 00:00
Search period end: 06 April 2017 00:00
Orbit: 399 x 409 km, 51.6° (Epoch: 28 March)

Date Brightness Start Highest point End Pass type
(mag) Time Alt. Az. Time Alt. Az. Time Alt. Az.
27 Mar - 01:04:44 10° WNW 01:07:57 49° N 01:11:11 10° E night (unlit)
27 Mar - 02:41:17 10° WNW 02:44:34 72° SSW 02:47:51 10° ESE night (unlit)
27 Mar - 04:18:36 10° W 04:20:35 15° SW 04:22:34 10° S night (unlit)
27 Mar - 21:00:02 10° SSW 21:02:38 22° SE 21:05:15 10° E visible
27 Mar - 22:35:32 10° WSW 22:38:49 84° NNW 22:42:07 10° ENE visible
28 Mar - 00:12:19 10° WNW 00:15:30 47° N 00:18:43 10° ENE night (unlit)
28 Mar - 01:48:55 10° WNW 01:52:13 80° NNE 01:55:32 10° ESE night (unlit)
28 Mar - 03:25:43 10° W 03:28:27 24° SW 03:31:11 10° SSE night (unlit)
28 Mar - 20:08:49 10° SSE 20:10:30 14° SE 20:12:13 10° ESE visible
28 Mar - 21:43:14 10° WSW 21:46:29 66° SSE 21:49:45 10° ENE visible
28 Mar - 23:19:51 10° W 23:23:04 50° N 23:26:17 10° ENE visible
29 Mar - 00:56:33 10° WNW 00:59:50 61° NNE 01:03:06 10° E night (unlit)
29 Mar - 02:33:08 10° WNW 02:36:14 39° SSW 02:39:20 10° SE night (unlit)
29 Mar - 20:51:05 10° SW 20:54:11 42° SSE 20:57:19 10° ENE visible
29 Mar - 22:27:23 10° W 22:30:37 58° NNW 22:33:52 10° ENE visible
30 Mar - 00:04:10 10° WNW 00:07:24 51° N 00:10:37 10° E night (unlit)
30 Mar - 01:40:41 10° WNW 01:43:57 62° SSW 01:47:12 10° SE night (unlit)
30 Mar - 03:18:24 10° WSW 03:19:53 13° SW 03:21:23 10° SSW night (unlit)
30 Mar - 19:59:10 10° SSW 20:01:57 26° SE 20:04:44 10° E daylight
30 Mar - 21:34:56 10° WSW 21:38:12 76° NNW 21:41:29 10° ENE visible
30 Mar - 23:11:43 10° WNW 23:14:54 47° N 23:18:07 10° ENE visible
31 Mar - 00:48:17 10° WNW 00:51:35 89° NNE 00:54:53 10° ESE night (unlit)
31 Mar - 02:25:12 10° W 02:27:44 21° SW 02:30:16 10° S night (unlit)
31 Mar - 19:07:40 10° S 19:09:45 16° SE 19:11:51 10° E daylight
31 Mar - 20:42:33 10° WSW 20:45:48 77° SSE 20:49:04 10° ENE visible
31 Mar - 22:19:14 10° W 22:22:25 48° N 22:25:38 10° ENE visible
31 Mar - 23:55:54 10° WNW 23:59:10 66° NNE 00:02:27 10° E visible
01 Apr - 01:32:31 10° W 01:35:31 33° SW 01:38:31 10° SSE night (unlit)
01 Apr - 19:50:18 10° SW 19:53:27 49° SSE 19:56:38 10° ENE daylight
01 Apr - 21:26:43 10° W 21:29:56 54° N 21:33:10 10° ENE visible
01 Apr - 23:03:28 10° WNW 23:06:42 53° N 23:09:56 10° E visible
02 Apr - 00:40:00 10° WNW 00:43:12 53° SSW 00:46:26 10° SE night (unlit)
02 Apr - 02:18:30 10° WSW 02:19:04 10° SW 02:19:38 10° SW night (unlit)
02 Apr - 18:58:15 10° SSW 19:01:09 30° SE 19:04:04 10° E daylight
02 Apr - 20:34:12 10° W 20:37:27 69° NNW 20:40:44 10° ENE visible
02 Apr - 22:11:00 10° WNW 22:14:12 48° N 22:17:24 10° E visible
02 Apr - 23:47:33 10° WNW 23:50:50 81° SSW 23:54:07 10° ESE visible
03 Apr - 01:24:39 10° W 01:26:55 17° SW 01:29:11 10° S night (unlit)
03 Apr - 18:06:32 10° S 18:08:54 19° SE 18:11:17 10° E daylight
03 Apr - 19:41:45 10° WSW 19:45:01 87° SSE 19:48:18 10° ENE daylight
03 Apr - 21:18:29 10° WNW 21:21:40 47° N 21:24:52 10° ENE visible
03 Apr - 22:55:07 10° WNW 22:58:23 73° NNE 23:01:41 10° ESE visible
04 Apr - 00:31:49 10° W 00:34:41 28° SW 00:37:32 10° SSE night (unlit)
04 Apr - 17:15:38 10° SSE 17:16:43 11° SE 17:17:48 10° ESE daylight
04 Apr - 18:49:24 10° SW 18:52:36 57° SSE 18:55:50 10° ENE daylight
04 Apr - 20:25:56 10° W 20:29:08 52° N 20:32:21 10° ENE visible
04 Apr - 22:02:40 10° WNW 22:05:53 56° N 22:09:08 10° E visible
04 Apr - 23:39:12 10° WNW 23:42:21 45° SSW 23:45:30 10° SE visible
05 Apr - 17:57:14 10° SW 18:00:14 35° SSE 18:03:16 10° E daylight
05 Apr - 19:33:22 10° W 19:36:37 63° NNW 19:39:52 10° ENE daylight
05 Apr - 21:10:10 10° WNW 21:13:22 49° N 21:16:34 10° E visible
05 Apr - 22:46:41 10° WNW 22:49:57 71° SSW 22:53:14 10° ESE visible
